Tracking 28790 objects as of 18-Apr-2024
HD Live streaming from Space Station
objects crossing your sky now

COSMOS 723

Track COSMOS 723 now!
10-day predictions
COSMOS 723 is classified as:


NORAD ID: 7718
Int'l Code: 1975-024A
Perigee: 893.6 km
Apogee: 980.9 km
Inclination: 64.7 °
Period: 103.6 minutes
Semi major axis: 7308 km
RCS: 3.16 m2 (large)
Launch date: April 2, 1975
Source: Commonwealth of Independent States (former USSR) (CIS)
Launch site: TYURATAM MISSILE AND SPACE COMPLEX (TTMTR)
Your satellite tracking list
Your tracking list is empty




NASA's NSSDC Master Catalog

Two Line Element Set (TLE):
1  7718U 75024A   24109.54438935 -.00000001  00000-0  73268-4 0  9990
2  7718  64.7171 221.7433 0059716 232.2814 127.2825 13.89575632489235
Source of the keplerian elements: AFSPC